Location: Arbon
(43.0005°N, 0.7472°E)
Time: 10:36:27
(UTC+00:00)

Vanguard 2 Rocket - Pass Details

Date: 01 December 2020
Orbit: 554 x 3325 km, 32.9° (Epoch: 21 January)

Event Time Altitude Azimuth Distance (km) Brightness Sun altitude
Rises 08:41:25 0° 252° (WSW) 7,128 11.2 12.4°
Reaches altitude 10° 08:46:08 10° 249° (WSW) 6,228 11.0 13.0°
Maximum altitude 09:05:53 60° 177° (S) 3,379 10.5 15.4°
Drops below altitude 10° 09:20:58 10° 102° (ESE) 4,907 11.5 17.0°
Sets 09:24:11 0° 99° (E) 5,602 11.6 17.3°
